This demonstration page uses our WeatherBlox Daily Observations layout. Learn more.

Left ArrowRight Arrow

38.80484, -77.04692

Hourly Observations for December 8, 2021

Temp ( °F °C ) Dew Point ( °F °C ) Humidity (%) Winds ( mph kmh ) Pressure ( in mb ) Visibility ( mi km ) Precip ( " mm )
12:52 am 00:52 Cloudy 37 2.8 20 -6.7 50 50 NE 6 9 30.14 1021 10 16 0.00 0.00
1:52 am 01:52 Cloudy 37 2.8 21 -6.1 52 52 NE 3 6 30.14 1021 10 16 0.00 0.00
2:52 am 02:52 Cloudy 37 2.8 22 -5.6 54 54 NE 6 9 30.13 1020 10 16 0.00 0.00
3:52 am 03:52 Cloudy 38 3.3 23 -5 55 55 NE 3 6 30.10 1019 10 16 0.00 0.00
4:52 am 04:52 Cloudy 38 3.3 23 -5 55 55 NE 5 7 30.10 1019 10 16 0.00 0.00
5:52 am 05:52 Cloudy 38 3.3 23 -5 55 55 NE 9 15 30.09 1019 10 16 0.00 0.00
6:52 am 06:52 Cloudy 38 3.3 24 -4.4 57 57 ENE 3 6 30.10 1019 10 16 0.00 0.00
7:52 am 07:52 Cloudy 38 3.3 25 -3.9 60 60 ENE 5 7 30.09 1019 10 16 0.00 0.00
8:52 am 08:52 Cloudy 39 3.9 25 -3.9 57 57 Calm 30.07 1018 10 16 0.00 0.00
9:52 am 09:52 Cloudy 40 4.4 27 -2.8 60 60 E 5 7 30.06 1018 10 16 0.00 0.00
10:52 am 10:52 Cloudy 41 5 27 -2.8 57 57 E 6 9 30.04 1017 10 16 0.00 0.00
11:52 am 11:52 Cloudy 41 5 27 -2.8 57 57 Calm 30.00 1016 10 16 0.00 0.00
12:52 pm 12:52 Cloudy 42 5.6 28 -2.2 58 58 S 6 9 29.95 1014 10 16 0.00 0.00
1:52 pm 13:52 Mostly Cloudy 42 5.6 27 -2.8 55 55 SSE 7 11 29.92 1013 10 16 0.00 0.00
2:52 pm 14:52 Mostly Cloudy 42 5.6 28 -2.2 58 58 S 5 7 29.91 1013 10 16 0.00 0.00
3:52 pm 15:52 Mostly Cloudy 43 6.1 26 -3.3 51 51 W 8 13 29.91 1013 10 16 0.00 0.00
4:52 pm 16:52 Mostly Cloudy 43 6.1 25 -3.9 49 49 WNW 8 13 29.92 1013 10 16 0.00 0.00
5:52 pm 17:52 Mostly Cloudy 42 5.6 25 -3.9 51 51 WNW 6 9 29.94 1014 10 16 0.00 0.00
6:52 pm 18:52 Partly Cloudy 41 5 25 -3.9 53 53 W 6 9 29.96 1015 10 16 0.00 0.00
7:52 pm 19:52 Partly Cloudy 42 5.6 26 -3.3 53 53 NW 9 15 29.99 1016 10 16 0.00 0.00
8:52 pm 20:52 Mostly Cloudy 42 5.6 26 -3.3 53 53 WNW 20 31 30.01 1016 10 16 0.00 0.00
9:52 pm 21:52 Mostly Cloudy 41 5 23 -5 49 49 NW 14 22 30.05 1018 10 16 0.00 0.00
10:52 pm 22:52 Partly Cloudy 39 3.9 21 -6.1 48 48 NNW 9 15 30.08 1019 10 16 0.00 0.00
11:52 pm 23:52 Mostly Cloudy 38 3.3 20 -6.7 48 48 NNW 12 19 30.11 1020 10 16 0.00 0.00

Powered by AerisWeather